User: anonymous   Login
Location: Unspecified
(40.7945°N, 111.1337°W)
Time: 04:49:32
(UTC-06:00)
Language:

Cosmos 1674 - Orbit

View from above orbital plane
View from above orbital plane
View from above satellite
View from above satellite

Ground track
Ground track

The orbit data is extracted from the following two-line orbital elements,

1 15944U 85069A   19144.84779272 +.00000470 +00000-0 +20538-4 0  9999
2 15944 082.5094 248.7175 0016925 186.4790 173.6228 15.19389587845018
Epoch (UTC): 24 May 2019 20:20:49
Eccentricity: 0.0016925
inclination: 82.5094°
perigee height: 496 km
apogee height: 519 km
right ascension of ascending node: 248.7175°
argument of perigee: 186.4790°
revolutions per day: 15.19389587
mean anomaly at epoch: 173.6228°
orbit number at epoch: 84501

The dashed part of the orbit path shows where the satellite is in the earth's shadow,  

DLR